You are here:

home

Questo sito é stato creato esclusivamente per valorizzare il lavoro svolto dall' intero
155° Gruppo E.T.S. del' Aeronautica Militare e non ha nessun fine commerciale ne di lucro. 
Pertanto, l' utilizzo delle foto é consentito solo per uso PRIVATO.

 

 
In alto

LIMS - Piacenza, San Damiano

[source: ADDS]
METAR
LIMS 231755Z 01001KT 3000 BR BKN035 SCT050 11/11 Q1025 RMK OVC VIS MIN 3000 WIND THR30 00000KT YLO =
TAF
TAF LIMS 231700Z 2318/2403 VRB03KT 2000 BR BKN030 TEMPO 2320/2403 0800 FG BKN002 =
In alto
WEB MASTER
Paolo "paolopaso" Pasotti
______________________________________
Last Update: 25/02/2011
_____________________________________________________________________________________________________________
© 2010 / 2011 - Tutti i diritti riservati
 
 
In alto